Location: Audinghen
(50.8518°N, 1.6129°E)
Time: 17:13:04
(UTC+00:00)

Meteor 1-22 Rocket - Pass Details

Date: 07 August 2020
Orbit: 787 x 940 km, 81.2° (Epoch: 25 September)

Event Time Altitude Azimuth Distance (km) Brightness Sun altitude
Exits shadow 02:27:33 21° 191° (S) 1,720 5.3 -15.4°
Maximum altitude 02:31:11 90° 84° (E) 796 4.0 -15.1°
Drops below altitude 10° 02:36:32 10° 13° (NNE) 2,377 7.6 -14.5°
Sets 02:38:56 0° 13° (NNE) 3,323 8.5 -14.3°
